Weather in Sandakan

Malaysia     5°51′05″N   118°06′06″E
temp.,
°C
wind,
m/s
gust,
m/s
humid.,
%
clouds,
%
prec.,
mm/h
press.,
hPa
HPBL,
m
16 may, sun
sun1623:00+25se1290100 2.2 100975
02:00+25sse1194100 4.1 100750
05:00+24ssw1294100 0.0 100773
08:00+26ssw128665 0.0 1009216
11:00+33se1255100 0.0 10081192
14:00+29ne367699 0.3 1006367
17:00+29ene267768 0.7 1006441
20:00+26e2387100 0.8 100890
17 may, mon
mon1723:00+25s1193100 1.5 100947
02:00+25ssw119499 1.5 100754
05:00+25sw1194100 0.0 100760
08:00+27ssw1282100 0.1 1009286
11:00+33ne1157100 0.2 10081305
14:00+32ne236473 1.4 10061028
17:00+29ne2472100 0.7 1006415
20:00+26e0184100 0.8 100839
18 may, tue
tue1823:00+25ssw1189100 0.0 100942
02:00+25wsw1293100 0.0 100759
05:00+24sw129697 0.1 100768
08:00+26wsw129230 1.6 1009248
11:00+30nnw117187 0.6 1008933
14:00+32ne226373 2.0 10061250
17:00+28nne3578100 0.8 1006385
20:00+26n0189100 0.9 100839
19 may, wed
wed1923:00+25sw1191100 0.0 100948
02:00+24wsw1296100 0.1 100788
05:00+24wsw1297100 0.0 100776
08:00+27wsw128578 0.0 1009281
11:00+32sw1159100 0.0 10081273
14:00+28nne3584100 1.0 1005254
17:00+26ne2691100 4.0 1006147
20:00+25ene129198 7.6 100852
20 may, thu
thu2023:00+25se119359 0.1 100949
02:00+24ssw1195100 0.1 100843
05:00+24sw129660 0.0 100869
08:00+25sw239092 0.0 1010233
11:00+32ssw1156100 0.1 10091087
14:00+33ne325160 0.1 10061718
17:00+28ne247961 1.2 1007369
20:00+26ne128684 1.9 100965